Flag for Canada Weather past 2 weeks in Maple Ridge, British Columbia, Canada

Now
49 °F

Cool.


Feels Like: 46 °F
Forecast: 44 / 53 °F
Wind: 7 mph from East

Location: P. Meadows Coastal Station


UV Index: 3 (Moderate)

Visibility: N/A


Pressure: 29.88 "Hg

Humidity: 83%

Dew point: 44 °F

Location of Maple RidgeLocation

Historic Weather in Maple Ridge

°F

Maple Ridge temperature yesterday

Maximum temperature yesterday: 55 °F (at 4:00 PM)
Minimum temperature yesterday: 45 °F (at 11:00 PM)
Average temperature yesterday: 50 °F

Past Weeks' High & Low Weather Summary

 TemperatureHumidityPressure
High68 °F (Apr 13, 4:00 PM)100% (Apr 14, 6:00 AM)30.34 "Hg (Apr 14, 6:00 AM)
Low35 °F (Apr 14, 6:00 AM)24% (Apr 13, 12:00 PM)29.67 "Hg (Apr 17, 8:00 PM)
Average50 °F74%30.05 "Hg
* Reported Apr 8 11:00 AM — Apr 23 11:00 AM, Maple Ridge, Weather by CustomWeather, © 2014

Note: Actual official high and low records may vary slightly from our data, if they occured in-between our weather recording intervals... More about our weather records

Advertising

Historic Weather Conditions — Data for Previous 24 hours

 ConditionsComfort  
Time TempWeatherWind HumidityBarometerVisibility
11:00 AM
Apr 23
47 °FCool.7 mph82%29.88 "HgN/A
10:00 AM47 °FCool.6 mph90%29.88 "HgN/A
9:00 AM46 °FCool.5 mph90%29.89 "HgN/A
8:00 AM45 °FQuite cool.6 mph93%29.88 "HgN/A
7:00 AM44 °FQuite cool.3 mph96%29.88 "HgN/A
6:00 AM44 °FQuite cool.5 mph93%29.87 "HgN/A
5:00 AM44 °FQuite cool.5 mph92%29.87 "HgN/A
4:00 AM44 °FQuite cool.6 mph93%29.86 "HgN/A
3:00 AM44 °FQuite cool.5 mph94%29.85 "HgN/A
2:00 AM44 °FQuite cool.5 mph96%29.85 "HgN/A
1:00 AM45 °FQuite cool.6 mph91%29.85 "HgN/A
12:00 AM46 °FCool.2 mph87%29.84 "HgN/A
11:00 PM
Apr 22
45 °FCool.3 mph92%29.85 "HgN/A
10:00 PM46 °FCool.2 mph84%29.85 "HgN/A
9:00 PM47 °FCool.5 mph72%29.84 "HgN/A
8:00 PM48 °FCool.9 mph66%29.83 "HgN/A
7:00 PM53 °FCool.2 mph51%29.83 "HgN/A
6:00 PM55 °FRefreshingly cool.5 mph47%29.84 "HgN/A
5:00 PM55 °FCool.6 mph47%29.84 "HgN/A
4:00 PM55 °FRefreshingly cool.6 mph48%29.84 "HgN/A
3:00 PM55 °FCool.7 mph48%29.85 "HgN/A
2:00 PM54 °FCool.8 mph48%29.84 "HgN/A
1:00 PM53 °FCool.7 mph51%29.84 "HgN/A
12:00 PM51 °FCool.6 mph60%29.83 "HgN/A
Weather by CustomWeather, © 2014

See weather overview